Notices

What's New in latest Release from April 7th, 2021:

- Updated Glossary, including Speed of Maximum Gust, and Total Hourly Precipitation

- Updated national and regional climate services offices contacts and prices information

- Addition of station inventory lists for 1981-2010, 1971-2000, and 1961-1990 Normals.

If you haven't already, please take our survey and provide feedback about our website: https://eccc.sondage-survey.ca/f/LanguageSelection.aspx?s=442ca660-fcf1-47c0-95a9-59707d6fd709

Hourly Data Report for April 01, 2021

ALGONQUIN PARK EAST GATE
ONTARIO
Current Station Operator: ECCC - MSC

45°32'00.000" N
78°16'00.000" W
397.00 m
6080192
71581
TNK

Download Data

Hourly Data (April 2021)
Hourly Data Report for April 1, 2021
TIME
LST
Temp Definition
°C
Dew Point Definition
°C
Rel Hum Definition
%
Precip. Amount Definition
mm

Wind Dir Definition
10's deg

Wind Spd Definition
km/h
Visibility Definition
km
Stn Press Definition
kPa
Hmdx Definition


Wind Chill Definition


Weather Definition


00:00 -1.5 -7.8 62 0.0 24 2   96.89   -2 LegendNANA
01:00 -1.3 -7.7 61 0.0 30 2   96.90   -2 LegendNANA
02:00 -1.1 -5.9 70 0.0 36 5   96.83   -3 LegendNANA
03:00 -2.2 -5.7 77 0.0 1 8   96.85   -5 LegendNANA
04:00 -3.1 -6.9 75 0.0 1 7   96.89   -6 LegendNANA
05:00 -4.0 -8.4 71 0.0 3 4   96.94   -6 LegendNANA
06:00 -4.7 -8.4 75 0.0 36 6   97.01   -7 LegendNANA
07:00 -5.5 -9.8 71 0.0 36 9   97.09   -10 LegendNANA
08:00 -6.3 -10.9 70 0.0 35 8   97.13   -10 LegendNANA
09:00 -6.2 -12.0 64 0.0 1 6   97.17   -9 LegendNANA
10:00 -6.5 -13.3 59 0.0 35 10   97.24   -11 LegendNANA
11:00 -5.8 -14.7 50 0.0 33 11   97.21   -11 LegendNANA
12:00 -5.6 -14.9 48 0.0 35 12   97.20   -11 LegendNANA
13:00 -5.8 -14.9 49 0.0 36 13   97.22   -11 LegendNANA
14:00 -4.6 -13.9 48 0.0 34 10   97.22   -9 LegendNANA
15:00 -4.5 -16.0 40 0.0 35 11   97.20   -9 LegendNANA
16:00 -3.3 -16.6 35 0.0 1 10   97.21   -7 LegendNANA
17:00 -3.1 -18.0 31 0.0 36 9   97.25   -7 LegendNANA
18:00 -3.5 -18.4 30 0.0 34 8   97.33   -7 LegendNANA
19:00 -4.0 -18.4 32 0.0 36 8   97.39   -7 LegendNANA
20:00 -4.4 -17.8 34 0.0 34 7   97.46   -8 LegendNANA
21:00 -4.7 -17.7 35 0.0 35 8   97.49   -8 LegendNANA
22:00 -5.1 -17.8 36 0.0 36 5   97.50   -7 LegendNANA
23:00 -5.6 -17.7 38 0.0 1 7   97.52   -9 LegendNANA

Notes on Data Quality.

Legend

  • E = Estimated
  • M = Missing
  • NA = Not Available*
  • [empty] = Indicates an unobserved value
Date modified: